Location: Les Salelles
(44.4192°N, 4.1044°E)
Time: 10:52:47
(UTC+00:00)

ISS - Pass Details

Date: 20 January 2021
Orbit: 417 x 421 km, 51.6° (Epoch: 01 March)

Event Time Altitude Azimuth Distance (km) Brightness Sun altitude
Rises 17:37:43 0° 216° (SW) 2,357 1.0 -10.9°
Reaches altitude 10° 17:39:55 10° 206° (SSW) 1,498 -0.3 -11.3°
Maximum altitude 17:43:00 34° 140° (SE) 711 -2.8 -11.8°
Enters shadow 17:44:47 20° 87° (E) 1,045 -2.4 -12.1°
